Regional Weather Roundup
Issued by NWS

Home | Current Version | Previous Version | Text Only | Print | Product List | Glossary On
Versions: 1 2 3 4 5 6 7 8 9 10 11 12 13 14 15 16 17 18 19 20 21 22 23 24 25 26 27 28 29 30 31 32 33 34 35 36 37 38 39 40 41 42 43 44 45 46 47 48 49 50
000
ASUS45 KBOU 280307
RWRCO

WEATHER ROUNDUP FOR COLORADO
NATIONAL WEATHER SERVICE DENVER/BOULDER CO
900 PM MDT MON MAR 27 2017

NOTE: "FAIR" INDICATES FEW OR NO CLOUDS BELOW 12000 FEET WITH NO
SIGNIFICANT WEATHER AND/OR OBSTRUCTIONS TO VISIBILITY.

COZ001>005-013-030-031-280400-
...NORTHWEST COLORADO...

CITY           SKY/WX    TMP DP  RH WIND       PRES   REMARKS
CRAIG          MOCLDY    37  31  78 E3        29.85R
HAYDEN         FAIR      37  30  75 SE12      29.85R
MEEKER         FAIR      37  31  78 SE5       29.81R
MOUNT WERNER   NOT AVBL
STEAMBOAT SPGS FAIR      36  34  92 E5        29.86S
WALDEN         NOT AVBL
$$

COZ006>008-011-280400-
...WEST CENTRAL VALLEYS...

CITY           SKY/WX    TMP DP  RH WIND       PRES   REMARKS
GRAND JUNCTION MOCLDY    52  35  52 SW18G31   29.79R
MONTROSE       CLOUDY    50  35  56 SE7       29.84R
EAGLE          CLOUDY    46  32  57 CALM      29.86R
RIFLE          FAIR      49  35  58 E15       29.79R
DELTA          RAIN      50  40  67 NE3       29.83R
NUCLA          DRIZZLE   45  36  70 SE16      29.86S
$$

COZ017>023-064>068-280400-
...SOUTHWEST COLORADO...

CITY           SKY/WX    TMP DP  RH WIND       PRES   REMARKS
DURANGO        LGT RAIN  43  34  70 S12G22    29.89R
CORTEZ         CLOUDY    43  39  86 E17       29.83F
PAGOSA SPRINGS CLOUDY    40  36  88 E3        29.93S
TELLURIDE      CLOUDY    34  33  97 SW7       29.92R WCI  28
WOLF CREEK PAS SNOW      25  25 100 S12       30.04S VSB 1/4 WCI  14
$$

COZ009-010-012-014-032>034-037-058>063-280400-
...CENTRAL COLORADO...

CITY           SKY/WX    TMP DP  RH WIND       PRES   REMARKS
ASPEN          CLOUDY    41  29  62 CALM      29.85R
BUENA VISTA    MOCLDY    41  31  67 CALM      29.86S
COPPER MTN     MOCLDY    30  25  80 W7        29.98R WCI  23
BERTHOUD PASS  FAIR      21  10  63 SW7       29.98F WCI  13
COTTONWOOD PAS MOCLDY    36  32  87 CALM      29.92R
GUNNISON       FAIR      44  27  51 N7        29.85R
KREMMLING      MOCLDY    41  34  75 CALM      29.89R
LEADVILLE      FAIR      34  22  61 SE5       29.90R WCI  30
MONARCH PASS   CLOUDY    30  23  74 SW9       30.08S WCI  22
SALIDA         MOCLDY    49  32  52 S5G20     29.92R
SUNLIGHT       CLOUDY    28  27  93 SW12G22   29.95S WCI  18
WILKERSON PASS SNOW      30  28  93 SW7       30.00R VSB 1/2 WCI  23
$$

COZ069>075-280400-
...SAN LUIS VALLEY/SANGRE DE CRISTO MOUNTAINS...

CITY           SKY/WX    TMP DP  RH WIND       PRES   REMARKS
ALAMOSA        MOCLDY    43  32  65 S13G18    29.91R
LA VETA PASS   NOT AVBL
SAGUACHE       FAIR      45  23  42 S6G16     29.88R
$$

COZ035-036-038>040-280400-
...NORTHERN COLORADO FRONT RANGE...

CITY           SKY/WX    TMP DP  RH WIND       PRES   REMARKS
DENVER INTL AP LGT RAIN  51  40  65 SW3       29.82R
DMNS CITY PARK   N/A     50  39  66 N2G9      29.83R
AURORA         MOCLDY    49  44  83 CALM      29.83R
FRONT RANGE AP CLOUDY    54  41  62 SW7       29.85R
ERIE MUNI ARPT DRIZZLE   50  44  80 W6        29.82R
BOULDER MUN AP DRIZZLE   52  39  62 S5        29.82S
CENTENNIAL     MOCLDY    48  39  71 NW3       29.83R
BROOMFIELD     LGT RAIN  48  41  76 CALM      29.83S
FORT COLLINS   FAIR      49  39  68 S6        29.83R
LONGMONT       CLOUDY    54  39  57 CALM      29.83S
$$

COZ041-046-047-076>085-087-088-280400-
...PIKES PEAK/PALMER DIVIDE AND SOUTHERN FOOTHILLS...

CITY           SKY/WX    TMP DP  RH WIND       PRES   REMARKS
COLO. SPRINGS  CLOUDY    49  37  63 SE12      29.86R
A. F. ACADEMY  NOT AVBL
SCHRIEVER AFB  LGT RAIN  47  38  70 S12G24    29.86S
ELLICOTT       NOT AVBL
FALCON         FAIR      46  36  68 S15G21    29.88S
FORT CARSON    MOCLDY    49  39  67 CALM      29.85R
LIMON          MOCLDY    47  37  68 SE13      29.86R
MONUMENT HILL  FAIR      43  32  65 S7        29.87S
TRINIDAD       CLOUDY    51  39  63 W9        29.86R
$$

COZ042>045-048>051-090-091-280400-
...NORTHEAST COLORADO...

CITY           SKY/WX    TMP DP  RH WIND       PRES   REMARKS
GREELEY ARPT   LGT RAIN  50  44  80 S9        29.85R
AKRON          FAIR      49  36  61 SE15      29.85R
BURLINGTON     FAIR      47  39  74 SE10      29.88R
WRAY           FAIR      54  36  50 SE12      29.86R
STERLING       MOCLDY    54  37  54 SE13      29.82R
HOLYOKE        FAIR      54  37  54 SE14      29.86R
FORT MORGAN    MOCLDY    53  33  45 SE12      29.83R
$$

COZ086-089-092>099-280400-
...SOUTHEAST COLORADO...

CITY           SKY/WX    TMP DP  RH WIND       PRES   REMARKS
PUEBLO         LGT RAIN  55  45  68 SE13      29.83R
LA JUNTA       LGT RAIN  61  37  41 E6        29.81R
LAMAR          MOCLDY    56  33  42 SE15      29.80R
SPRINGFIELD      N/A     51  34  52 SE9       29.85R
$$



USA.gov is the U.S. government's official web portal to all federal, state and local government web resources and services.